sat.trackr.live / text

‹ back to catalog

STARLINK-2040

NORAD 47656 · 2021-012AN

PAYLOAD ACTIVE UNKNOWN

§ Identity

Operator
Country
US
Launch date
2021-02-16
Launch site
AFETR
Launch vehicle
Mass (kg)
RCS (m²)

Purposes: comms

External: N2YO · Heavens-Above · Gunter

§ Orbital elements

Epoch: 2026-09-19T15:20:56.571360Z

Period
94.01 min
Inclination
53.1586°
Eccentricity
0.0001291
Mean motion
15.31695269 rev/d
Perigee alt
469.9 km
Apogee alt
471.6 km
Semi-major
6,848.9 km
B*
2.0492e-5
RAAN
226.9165°
Arg perigee
89.4311°
Mean anomaly
270.6838°
Rev number
31,001

§ Raw data

STARLINK-20401 47656U 21012AN  26262.63954365  .00000271  00000+0  20492-4 0  99932 47656  53.1586 226.9165 0001291  89.4311 270.6838 15.31695269310014

JSON: /api/v1/satellites/47656 · /tle

For live sub-satellite position, see the globe view (requires WebGL).

§ Visibility from observer

Set your observer location to see the next 7 days of passes ≥ 10°. The values pass through the URL so the page stays shareable.

No JS? Fill the form by hand. The geolocation button needs JavaScript.